User: anonymous   Login
Location: Arrodets-la-Barthe
(43.0306°N, 0.2829°E)
Time: 22:46:07
(UTC+00:00)
Language:

BREEZE-M R/B - Orbit

View from above orbital plane
View from above orbital plane
View from above satellite
View from above satellite

Ground track
Ground track

The orbit data is extracted from the following two-line orbital elements,

1 32709U 08011B   22027.60770833 -.00000731  00000-0 -78120-2 0  9991
2 32709  48.9107 165.6757 6489582 125.0560 356.9244  3.07834653 96827
Epoch (UTC): 27 January 2022 14:35:06
Eccentricity: 0.6489582
inclination: 48.9107°
perigee height: 629 km
apogee height: 26537 km
right ascension of ascending node: 165.6757°
argument of perigee: 125.0560°
revolutions per day: 3.07834653
mean anomaly at epoch: 356.9244°
orbit number at epoch: 9682

The dashed part of the orbit path shows where the satellite is in the earth's shadow,  

DLR